Cloud_Cover
100 93 100 100 100 100 81 82 83 16 58 86 44 71 78 100 84 100 100 100 90 9 93 66 5 94 36 2 0 0 57 100 100 68 98 98 100 100
97 100 99 100 100 100 100 100 100 44 92 100 100 100 77 100 100 100 100 100 100 100 55 25 22 13 4 2 0 0 1 40 100 100 90 60 100 100
87 100 98 100 82 100 100 100 99 100 100 84 95 97 100 100 99 98 87 100 100 100 100 93 7 6 16 5 19 16 2 2 4 49 100 100 91 100
80 50 100 99 100 82 90 99 96 91 100 100 99 100 100 98 77 100 99 99 100 100 100 100 98 96 77 61 5 4 20 10 1 5 100 100 100 80
38 34 62 98 74 100 100 100 85 70 94 100 100 100 100 100 100 100 100 100 100 100 100 100 100 100 100 100 97 66 83 100 67 33 44 87 98 44
43 54 62 100 86 100 100 100 100 100 100 100 100 100 100 100 100 100 100 100 100 100 100 100 100 100 100 100 100 100 37 98 100 99 76 50 31 0
100 100 100 100 55 68 68 23 28 2 17 94 100 98 99 87 100 100 100 100 100 100 100 100 100 100 100 100 100 100 100 84 100 100 100 100 100 88
80 62 65 100 80 94 68 60 100 97 56 65 86 99 100 100 100 100 100 100 100 100 100 100 100 100 100 100 100 100 97 100 100 100 100 100 100 100
100 100 100 99 100 100 100 100 100 92 97 96 100 100 100 100 100 100 100 100 100 100 100 100 100 100 100 100 100 100 100 100 89 100 100 100 100 100
100 100 100 97 83 77 92 100 100 100 100 100 100 100 100 100 100 100 100 100 100 100 100 100 100 100 93 100 100 100 100 100 100 100 100 100 100 100
6 11 80 46 60 21 79 96 95 96 90 80 91 95 56 100 100 100 100 100 100 100 100 100 100 100 100 100 100 100 100 100 100 100 100 100 100 100
0 0 0 0 0 2 16 71 94 85 100 100 100 100 100 100 100 100 100 100 100 100 100 100 100 100 100 100 100 100 100 100 100 100 100 100 100 100
48 69 72 19 13 1 5 7 0 9 12 50 47 93 100 90 83 69 98 100 100 100 100 100 100 100 100 100 100 100 100 100 100 100 100 100 100 100
54 37 44 17 15 0 32 32 11 81 78 58 48 42 29 31 100 99 94 100 100 100 100 100 100 100 100 100 100 100 100 100 100 100 100 100 100 100
0 16 6 0 0 0 0 0 0 2 27 55 97 83 100 100 100 98 100 100 100 100 100 100 100 100 100 100 100 100 100 100 100 100 100 100 100 100
0 0 0 0 0 0 0 0 0 0 0 0 16 10 8 67 76 24 96 100 100 100 100 100 100 100 100 100 100 100 100 100 100 100 100 100 100 100
5 0 0 0 0 0 0 0 0 0 0 0 0 0 0 10 45 4 1 0 1 44 38 59 68 100 100 100 100 100 100 100 100 100 100 100 100 100
0 0 0 0 0 0 0 0 0 0 0 0 3 3 2 2 3 11 7 5 11 16 28 50 47 21 31 90 100 100 100 100 100 100 100 100 100 100
0 0 0 2 5 4 5 3 5 5 5 5 5 5 42 22 6 36 41 47 52 60 68 61 52 66 35 21 28 85 100 100 100 100 100 100 100 100
0 0 0 0 0 2 4 3 4 3 5 4 5 5 4 4 14 35 61 38 25 99 83 98 100 100 98 63 21 4 0 0 4 4 83 100 100 100
0 0 0 0 0 0 0 0 0 0 0 0 0 0 0 0 4 4 4 5 5 10 10 27 58 8 3 23 52 9 13 43 4 1 1 3 5 25
0 0 0 0 0 0 0 0 0 0 0 0 0 0 0 0 1 1 0 4 18 37 14 0 4 8 13 24 8 5 5 3 1 0 0 0 0 5
0 0 0 0 0 0 0 0 0 0 0 0 0 2 5 5 5 7 41 54 59 39 3 0 0 44 64 10 12 7 5 3 4 4 2 2 0 0